[[{"header":{"parameterUnit":"m.s-1","parameterCategory":1,"la1":30.2991,"la2":30.254,"lo1":-89.0895,"lo2":-89.0444,"dy":0.0017,"dx":0.0017,"nx":28,"ny":28,"refTime":"2024-08-17T03:00:00:Z","depth":0,"parameterNumber":2,"parameterNumberName":"U-component_of_WINDS"},"data":[0,0,0,0,0,0,0,0,0,0,0,0,0,0,0,0,0,0,0,0,0,0,0,0,0,0,0,0,0,0,0,0,0,0,0,0,0,0,0,0,0,0,0,0,0,0,0,0,0,0,0,0,0,0,0,0,0,0,-0.6665,-0.6664,0,-0.6645,-0.6644,-0.6644,-0.6631,-0.6631,-0.6631,-0.6631,-0.6612,-0.6612,-0.6611,0,0,0,0,0,0,0,0,0,0,0,0,0,-0.6694,-0.6693,-0.6665,-0.6664,-0.6664,-0.6645,-0.6644,-0.6644,-0.6631,-0.6631,-0.6631,-0.6631,-0.6612,-0.6612,-0.6611,0,0,0,0,0,0,0,0,0,0,0,0,0,-0.6678,-0.6693,-0.6665,-0.6655,-0.6654,-0.6645,-0.6644,-0.6644,-0.6631,-0.6631,-0.6631,-0.6631,-0.6612,-0.6612,-0.6611,-0.661,0,0,-0.6609,-0.6609,0,0,0,0,0,0,0,0,-0.6679,-0.6677,-0.6657,-0.6656,-0.6655,-0.664,-0.6648,-0.6633,-0.6631,-0.664,-0.6631,-0.6631,-0.6622,-0.662,-0.6617,-0.6609,-0.6609,-0.6609,-0.6609,-0.6609,-0.6609,0,0,0,0,0,0,0,-0.668,-0.6678,-0.6657,-0.6657,-0.6655,-0.6653,-0.665,-0.6645,-0.6632,-0.6639,-0.6638,-0.6636,-0.6621,-0.6618,-0.6616,-0.6608,-0.6609,-0.6609,-0.6608,-0.6608,-0.6599,-0.6599,0,0,0,0,0,0,-0.6682,-0.6679,-0.6657,-0.6656,-0.6667,-0.6652,-0.665,-0.6645,-0.6632,-0.663,-0.6636,-0.6635,-0.6619,-0.6617,-0.6616,-0.6614,-0.6609,-0.6608,-0.6608,-0.6599,-0.6599,-0.6599,0,0,0,0,0,0,-0.6683,-0.6681,-0.6658,-0.6667,-0.6664,-0.6652,-0.6647,-0.6645,-0.6641,-0.663,-0.6627,-0.6635,-0.6619,-0.6617,-0.6612,-0.6613,-0.6608,-0.6607,-0.6599,-0.6599,-0.6599,-0.661,0,0,0,0,0,0,-0.6684,-0.6681,-0.668,-0.6667,-0.6664,-0.6654,-0.6647,-0.6644,-0.664,-0.6639,-0.6628,-0.6626,-0.6618,-0.6613,-0.6611,-0.6612,-0.6607,-0.6599,-0.6599,-0.6599,-0.661,-0.6611,-0.6611,0,0,0,0,0,-0.6685,-0.6684,-0.668,-0.6677,-0.6662,-0.6654,-0.6652,-0.6643,-0.664,-0.6639,-0.6632,-0.6626,-0.6613,-0.6612,-0.661,-0.6611,-0.6599,-0.6599,-0.6599,-0.6609,-0.661,-0.6611,0,0,0,0,0,0,-0.6698,-0.6682,-0.6677,-0.6672,-0.6665,-0.6652,-0.6651,-0.6645,-0.6638,-0.6637,-0.6627,-0.6625,-0.6621,-0.6616,-0.6615,-0.661,-0.6605,-0.6605,-0.6613,-0.6614,-0.6615,-0.6617,-0.6606,0,0,0,0,0,-0.67,-0.6694,-0.6681,-0.6678,-0.6674,-0.6663,-0.6659,-0.6653,-0.6645,-0.6641,-0.6634,-0.6627,-0.6621,-0.6617,-0.6611,-0.6609,-0.6606,-0.6608,-0.6609,-0.661,-0.661,-0.6609,-0.661,-0.66,-0.66,-0.66,0,0,-0.6704,-0.6695,-0.6692,-0.668,-0.6673,-0.6668,-0.666,-0.6655,-0.6651,-0.6641,-0.6636,-0.663,-0.6621,-0.6617,-0.6615,-0.6613,-0.6612,-0.6611,-0.6611,-0.6611,-0.6609,-0.661,-0.6611,-0.6601,-0.6601,-0.66,0,0,-0.671,-0.6702,-0.6699,-0.6692,-0.6682,-0.6674,-0.6674,-0.6662,-0.6657,-0.6652,-0.6644,-0.6639,-0.663,-0.6624,-0.662,-0.6623,-0.6618,-0.6622,-0.6627,-0.6626,-0.6627,-0.6627,-0.6629,-0.663,-0.6622,-0.6622,-0.6622,0,-0.6717,-0.6708,-0.6698,-0.6693,-0.6688,-0.6678,-0.6675,-0.6669,-0.6657,-0.6655,-0.6652,-0.6639,-0.6633,-0.6628,-0.6629,-0.6625,-0.6625,-0.6623,-0.6627,-0.6628,-0.6628,-0.663,-0.663,-0.6623,-0.6622,-0.6622,-0.6622,0,-0.6718,-0.6712,-0.671,-0.6699,-0.6694,-0.669,-0.668,-0.6676,-0.667,-0.6663,-0.6658,-0.665,-0.6642,-0.664,-0.6635,-0.6635,-0.6633,-0.6629,-0.6624,-0.663,-0.6631,-0.6632,-0.6623,-0.6623,-0.6623,-0.6623,0,0,-0.6731,-0.6714,-0.6713,-0.6708,-0.6696,-0.6692,-0.6687,-0.6679,-0.6677,-0.6669,-0.6666,-0.6658,-0.6654,-0.6649,-0.6643,-0.6642,-0.6646,-0.6637,-0.6637,-0.664,-0.6645,-0.6649,-0.665,-0.6642,-0.6642,-0.6642,-0.6646,0,-0.6735,-0.6726,-0.6717,-0.6712,-0.6706,-0.6697,-0.6693,-0.6686,-0.6679,-0.6674,-0.6668,-0.6662,-0.6657,-0.6654,-0.6652,-0.6645,-0.6647,-0.6645,-0.6639,-0.6639,-0.6642,-0.665,-0.6654,-0.6659,-0.6647,-0.6647,-0.6647,0,-0.6739,-0.6731,-0.6725,-0.6714,-0.6711,-0.6708,-0.67,-0.6695,-0.6687,-0.6682,-0.6677,-0.667,-0.6666,-0.6662,-0.6656,-0.6655,-0.6652,-0.6649,-0.6649,-0.6648,-0.6644,-0.6651,-0.666,-0.6661,-0.6647,-0.6647,-0.6647,0,-0.675,-0.6738,-0.6733,-0.6729,-0.6715,-0.6713,-0.6708,-0.6699,-0.6695,-0.6688,-0.6685,-0.6678,-0.6675,-0.667,-0.6662,-0.6659,-0.6657,-0.6652,-0.6654,-0.6654,-0.6654,-0.6655,-0.6664,-0.6652,-0.6652,-0.6652,-0.6652,0,-0.6755,-0.6752,-0.6738,-0.6735,-0.6731,-0.672,-0.6718,-0.6711,-0.6704,-0.67,-0.6691,-0.6688,-0.6677,-0.6672,-0.6666,-0.6663,-0.6661,-0.6658,-0.6656,-0.6659,-0.6659,-0.6657,-0.6657,-0.6652,-0.6652,-0.6652,-0.6652,0,-0.6767,-0.6757,-0.6751,-0.6738,-0.6735,-0.6733,-0.6723,-0.672,-0.6713,-0.6708,-0.6706,-0.6696,-0.669,-0.6681,-0.6673,-0.6669,-0.6667,-0.6664,-0.667,-0.6669,-0.6671,-0.6671,-0.668,-0.6681,-0.6668,-0.6668,-0.6668,0,-0.6772,-0.6769,-0.6756,-0.6752,-0.6747,-0.6741,-0.6737,-0.6726,-0.6722,-0.6712,-0.6711,-0.6705,-0.6699,-0.6691,-0.6683,-0.6676,-0.6674,-0.6677,-0.6673,-0.6675,-0.6674,-0.6675,-0.6675,-0.6678,-0.6678,-0.6679,-0.6679,0,-0.6781,-0.6776,-0.677,-0.6761,-0.6756,-0.675,-0.6743,-0.674,-0.6729,-0.6725,-0.6718,-0.6714,-0.6706,-0.67,-0.6692,-0.6687,-0.6681,-0.668,-0.668,-0.6683,-0.6687,-0.6685,-0.6673,-0.668,-0.668,-0.668,-0.668,-0.668,-0.6789,-0.6787,-0.6777,-0.677,-0.6764,-0.6757,-0.6754,-0.6746,-0.6741,-0.6733,-0.6727,-0.6722,-0.6714,-0.6703,-0.6698,-0.6694,-0.6692,-0.6692,-0.6692,-0.6692,-0.6694,-0.6687,-0.6693,-0.6693,-0.6693,-0.6693,-0.6693,0,-0.6799,-0.6792,-0.6786,-0.6776,-0.6771,-0.6765,-0.6757,-0.6753,-0.6748,-0.6741,-0.6735,-0.6728,-0.6722,-0.6714,-0.6708,-0.6706,-0.6703,-0.6705,-0.6705,-0.6704,-0.6696,-0.6697,-0.6707,-0.6707,-0.6707,-0.6707,-0.6707,-0.6707,-0.6803,-0.6798,-0.6792,-0.6784,-0.6778,-0.6771,-0.6767,-0.6762,-0.6756,-0.6748,-0.6743,-0.6737,-0.673,-0.6723,-0.6718,-0.6715,-0.6714,-0.6716,-0.6713,-0.6706,-0.6705,-0.6703,-0.6704,-0.6716,-0.6716,-0.6721,-0.6722,-0.6722]},{"header":{"parameterUnit":"m.s-1","parameterCategory":1,"la1":30.2991,"la2":30.254,"lo1":-89.0895,"lo2":-89.0444,"dy":0.0017,"dx":0.0017,"nx":28,"ny":28,"refTime":"2024-08-17T03:00:00:Z","depth":0,"parameterNumber":3,"parameterNumberName":"V-component_of_WINDS"},"data":[0,0,0,0,0,0,0,0,0,0,0,0,0,0,0,0,0,0,0,0,0,0,0,0,0,0,0,0,0,0,0,0,0,0,0,0,0,0,0,0,0,0,0,0,0,0,0,0,0,0,0,0,0,0,0,0,0,0,2.7932,2.7931,0,2.7906,2.7905,2.7905,2.7859,2.7858,2.7858,2.7857,2.7829,2.783,2.783,0,0,0,0,0,0,0,0,0,0,0,0,0,2.7942,2.7942,2.7932,2.7931,2.7931,2.7906,2.7905,2.7905,2.7859,2.7858,2.7857,2.7856,2.7829,2.783,2.783,0,0,0,0,0,0,0,0,0,0,0,0,0,2.7929,2.7942,2.7932,2.7905,2.7903,2.7906,2.7905,2.7905,2.786,2.7858,2.7857,2.7856,2.7829,2.783,2.783,2.7856,0,0,2.783,2.783,0,0,0,0,0,0,0,0,2.793,2.7929,2.7909,2.7907,2.7904,2.7884,2.7899,2.7889,2.786,2.7876,2.7857,2.7855,2.7849,2.7847,2.7845,2.7855,2.7854,2.783,2.783,2.783,2.783,0,0,0,0,0,0,0,2.7931,2.7929,2.7921,2.7909,2.7906,2.7895,2.7891,2.7897,2.787,2.7874,2.7871,2.7869,2.7847,2.7845,2.7844,2.7854,2.783,2.783,2.783,2.783,2.7885,2.7886,0,0,0,0,0,0,2.7935,2.793,2.7922,2.7921,2.7914,2.7896,2.7892,2.7892,2.787,2.7865,2.787,2.7867,2.7846,2.7844,2.7843,2.7873,2.783,2.783,2.783,2.7884,2.7885,2.7887,0,0,0,0,0,0,2.7936,2.7935,2.7923,2.7925,2.7922,2.7897,2.7897,2.7892,2.789,2.7866,2.7861,2.7873,2.7845,2.7843,2.7854,2.7872,2.783,2.783,2.7882,2.7884,2.7886,2.7934,0,0,0,0,0,0,2.7936,2.7936,2.7945,2.7925,2.7922,2.7934,2.7898,2.7893,2.7891,2.7886,2.7868,2.7863,2.7843,2.7854,2.7854,2.7871,2.7831,2.788,2.7883,2.7885,2.793,2.7937,2.7943,0,0,0,0,0,2.7937,2.7959,2.7946,2.7945,2.7934,2.7935,2.7934,2.791,2.7892,2.7902,2.7887,2.7864,2.787,2.7855,2.7855,2.7872,2.7879,2.7882,2.7885,2.7927,2.7936,2.7943,0,0,0,0,0,0,2.7982,2.7956,2.7941,2.7958,2.7949,2.7928,2.7939,2.792,2.7916,2.7912,2.7883,2.7879,2.7894,2.7884,2.7868,2.7898,2.7871,2.7874,2.7903,2.7911,2.7917,2.7919,2.7831,0,0,0,0,0,2.7994,2.7997,2.7974,2.7991,2.7988,2.7964,2.7964,2.7947,2.7937,2.7933,2.7918,2.7909,2.7909,2.7909,2.7908,2.7929,2.7924,2.7941,2.7947,2.7953,2.7955,2.7966,2.7974,2.7897,2.7897,2.7897,0,0,2.8018,2.8004,2.8008,2.8,2.7991,2.7995,2.7961,2.7967,2.797,2.7934,2.7943,2.7932,2.792,2.7937,2.7943,2.7929,2.7976,2.7957,2.7961,2.7961,2.797,2.7978,2.7984,2.7899,2.7899,2.7898,0,0,2.8064,2.8054,2.8068,2.806,2.8048,2.8032,2.8036,2.8017,2.8009,2.8018,2.7991,2.7994,2.7994,2.7987,2.7984,2.8029,2.8008,2.803,2.8062,2.8073,2.8079,2.8084,2.8101,2.8107,2.8033,2.8033,2.8033,0,2.8096,2.8101,2.8077,2.8084,2.8082,2.805,2.8063,2.8057,2.8045,2.8044,2.8029,2.8029,2.8019,2.8033,2.8044,2.8043,2.8046,2.8031,2.808,2.8085,2.809,2.8105,2.8111,2.8036,2.8035,2.8035,2.8035,0,2.8141,2.8145,2.8157,2.8147,2.8146,2.8156,2.8134,2.8136,2.8119,2.8106,2.8116,2.8103,2.8098,2.8101,2.8084,2.8113,2.8105,2.8086,2.8058,2.81,2.8114,2.812,2.8039,2.8038,2.8038,2.8037,0,0,2.8213,2.819,2.8195,2.819,2.8175,2.8178,2.8188,2.8184,2.8186,2.8179,2.8187,2.8188,2.8171,2.8167,2.815,2.816,2.8197,2.8139,2.8138,2.815,2.8228,2.8243,2.825,2.8184,2.8185,2.8185,2.8229,0,2.8256,2.827,2.825,2.8269,2.8273,2.8244,2.8252,2.8244,2.8232,2.8234,2.822,2.8222,2.8199,2.8196,2.8205,2.8191,2.8212,2.8187,2.819,2.819,2.8193,2.8257,2.8272,2.8314,2.8235,2.8236,2.8236,0,2.8307,2.8303,2.8324,2.8308,2.8309,2.8317,2.8312,2.8314,2.8305,2.8296,2.8292,2.8272,2.8281,2.8255,2.8267,2.825,2.8251,2.8244,2.8245,2.8244,2.8215,2.8257,2.8327,2.8333,2.8245,2.8244,2.8243,0,2.8358,2.8358,2.837,2.8367,2.8349,2.8356,2.8349,2.8338,2.8338,2.8334,2.8333,2.8331,2.8329,2.8327,2.8308,2.8291,2.8322,2.8294,2.8314,2.8315,2.8321,2.8321,2.8392,2.8323,2.8322,2.8322,2.8322,0,2.8407,2.8421,2.8393,2.84,2.8415,2.8391,2.8406,2.8396,2.8387,2.8393,2.8368,2.8373,2.8347,2.835,2.8334,2.8347,2.8346,2.8339,2.8334,2.8341,2.8342,2.834,2.8336,2.8324,2.8324,2.8323,2.8323,0,2.8466,2.8447,2.8459,2.8442,2.8438,2.845,2.8435,2.8441,2.8428,2.8436,2.8436,2.8415,2.8418,2.8398,2.8396,2.8386,2.8406,2.8396,2.8409,2.8406,2.8427,2.8425,2.8498,2.8507,2.8433,2.8433,2.8434,0,2.8498,2.8508,2.8492,2.8494,2.8489,2.8492,2.8492,2.847,2.847,2.8461,2.8469,2.8469,2.8468,2.8473,2.8458,2.8457,2.8447,2.8473,2.8447,2.8453,2.8448,2.8447,2.8448,2.8478,2.8479,2.848,2.8481,0,2.8558,2.8549,2.8549,2.8547,2.8548,2.8545,2.854,2.8543,2.8519,2.8521,2.8524,2.8523,2.8522,2.8523,2.8519,2.8512,2.8493,2.8489,2.8494,2.85,2.8507,2.8504,2.8423,2.8487,2.8487,2.8486,2.8486,2.8486,2.8604,2.8611,2.8602,2.8604,2.8598,2.8595,2.8601,2.8589,2.8591,2.8588,2.8575,2.858,2.8572,2.8565,2.856,2.8563,2.8551,2.8557,2.8559,2.8561,2.8565,2.8507,2.8562,2.8562,2.8562,2.8562,2.8562,0,2.8662,2.8655,2.8657,2.8652,2.8654,2.8636,2.8631,2.8633,2.8638,2.8632,2.8632,2.8635,2.8636,2.8622,2.8621,2.8627,2.8618,2.8627,2.8626,2.8625,2.8576,2.8572,2.8635,2.8635,2.8635,2.8635,2.8635,2.8635,2.8692,2.8704,2.8695,2.8704,2.8697,2.8702,2.8701,2.8698,2.8693,2.8698,2.8699,2.869,2.8681,2.8679,2.868,2.8676,2.8677,2.8689,2.8682,2.8636,2.8629,2.8622,2.8618,2.869,2.869,2.8731,2.8731,2.8732]}]]